AirNav   Bose ProFlight Aviation Headset
 
 1444 users online  

T19 Duval-Freer Airport
Freer, Texas, USA

GOING TO FREER?


FAA INFORMATION EFFECTIVE 13 SEPTEMBER 2018

Location

FAA Identifier: T19
Lat/Long: 27-53-19.3000N / 098-35-59.8500W
27-53.321667N / 098-35.997500W
27.8886944 / -98.5999583
(estimated)
Elevation: 564 ft. / 171.9 m (surveyed)
Variation: 07E (1985)
From city: 1 mile NE of FREER, TX
Time zone: UTC -5 (UTC -6 during Standard Time)
Zip code: 78357

Airport Operations

Airport use: Open to the public
Activation date: 11/1947
Control tower: no
ARTCC: HOUSTON CENTER
FSS: SAN ANGELO FLIGHT SERVICE STATION
NOTAMs facility: SJT (NOTAM-D service available)
Attendance: UNATNDD
Wind indicator: lighted
Segmented circle: yes
Lights: SS-SR
Beacon: white-green (lighted land airport)
Operates sunset to sunrise.

Airport Communications

CTAF: 122.9

Nearby radio navigation aids

VOR radial/distance  VOR name  Freq  Var
ALIr280/(32.0)ALICE VOR114.5006E

 
NDB name  Hdg/Dist  Freq  Var  ID
HEBBRONVILLE007/33.026606EHBV .... -... ...-

Airport Services

Parking: tiedowns
Airframe service: NONE
Powerplant service: NONE

Runway Information

Runway 14/32

Dimensions: 3200 x 60 ft. / 975 x 18 m
Surface: asphalt, in poor condition
BROKEN PIECES OF ASPHALT ALONG RWY EDGES AND THLDS.
Weight bearing capacity: 
Single wheel: 24.0
Runway edge lights: low intensity
SEVERAL RY AND THLD LIGHTS INOPERATIVE AND ARE MOUNTED ON NON-FRANGIBLE STEEL RODS.
RUNWAY 14  RUNWAY 32
Gradient: 1.1%1.1%
Traffic pattern: leftleft
Markings: basic, in good conditionbasic, in good condition
Obstructions: 12 ft. brush, 360 ft. from runway, 13:1 slope to clear42 ft. pole, 977 ft. from runway, 86 ft. right of centerline, 18:1 slope to clear

Airport Ownership and Management from official FAA records

Ownership: Publicly-owned
Owner: DUVAL CO - CITY OF FREER
CITY OF FREER
FREER, TX 78357
Phone 361-394-6612
Manager: ANA GARCIA
P.O. DRAWER N
FREER, TX 78357
Phone 361-394-6612
MAYOR.

Airport Operational Statistics

Aircraft operations: 100/year *
100% transient general aviation
* for 12-month period ending 23 March 2017

Additional Remarks

TO HAVE GATE UNLOCKED, CALL 361-394-6002 (POLICE DEPT).
APRON AND TAXIWAY MARKINGS FADED.

Instrument Procedures

There are no published instrument procedures at T19.

Some nearby airports with instrument procedures:

KNOG - Orange Grove Naval Auxiliary Field (30 nm E)
KALI - Alice International Airport (32 nm E)
KHBV - Jim Hogg County Airport (33 nm S)
KIKG - Kleberg County Airport (36 nm SE)
8T6 - Live Oak County Airport (38 nm NE)
 
Loc | Ops | Rwys | IFR | FBO | Links
Com | Nav | Svcs | Stats | Notes


 
Area around T19 (Duval-Freer Airport)
 
Road maps at: MapQuest Bing Google
 
Aerial photo
WARNING: Photo may not be current or correct
Aerial photo of T19 (Duval-Freer Airport)
Photo by Gregg Gilliam
Taken in January 2009

Do you have a better or more recent aerial photo of Duval-Freer Airport that you would like to share? If so, please send us your photo.

 
Sectional chart

 
Airport distance calculator
Flying to Duval-Freer Airport? Find the distance to fly.

From to T19

Sunrise and sunset
Times for 20-Sep-2018
 Local
(UTC-5)
 Zulu
(UTC)
Morning civil twilight06:5911:59
Sunrise07:2312:23
Sunset19:3300:33
Evening civil twilight19:5600:56

Current date and time
Zulu (UTC)  20-Sep-2018 16:07:06
Local (UTC-5)  20-Sep-2018 11:07:06
 
METAR
KNOG 
29nm E 
201556Z AUTO 16011KT 10SM FEW022 30/24 A2995 RMK AO2 SLP122 T03000244 PNO $
KALI 
32nm E 
201553Z AUTO 17011KT 10SM SCT023 29/24 A2994 RMK AO2 SLP135 T02940239
KHBV 
33nm S 
201550Z AUTO 18010KT 10SM BKN017 BKN026 28/23 A2996 RMK AO2 T02760226
KIKG 
36nm SE 
201555Z AUTO 14007KT 10SM SCT019 BKN027 BKN033 30/27 A2994 RMK AO2 T03000268
KCOT 
47nm NW 
201553Z AUTO 16008KT 10SM FEW017 SCT024 BKN100 27/24 A2995 RMK AO2 SLP133 T02720244
KNQI 
48nm SE 
201556Z 16010KT 10SM FEW022 SCT027 BKN170 BKN250 31/25 A2994 RMK AO2 SLP134 CB DSNT NE AND E AND SE TCU DSNT E T2 SET T03060250 $
KBKS 
48nm SE 
201555Z AUTO 16012KT 10SM SCT026 SCT034 SCT048 30/24 A2993 RMK AO1 T03010243
KRBO 
49nm E 
201555Z AUTO 15007KT 10SM SCT017 BKN022 BKN032 30/26 A2995 RMK AO2 LTG DSNT NE T02970256
TAF
KALI 
32nm E 
201301Z 2013/2112 15005KT P6SM VCSH SCT020 BKN120 TEMPO 2013/2014 5SM BR BKN020 FM201500 16010KT P6SM VCTS SCT020CB BKN050 TEMPO 2015/2019 VRB15G25KT 4SM TSRA BKN015CB OVC050 FM202000 14012KT P6SM VCTS SCT035CB BKN090 PROB30 2023/2103 4SM -TSRA OVC030CB FM210300 13009KT P6SM BKN025 OVC250 FM210700 15006KT P6SM BKN010 OVC045
NOTAMs
Click for the latest NOTAMs
NOTAMs are issued by the DoD/FAA and will open in a separate window not controlled by AirNav.

 

 
 

Would you like to see your business listed on this page?

 If your business provides an interesting product or service to pilots, flight crews, aircraft, or users of the Duval-Freer Airport, you should consider listing it here.  To start the listing process, click on the button below
 
Add a business
 

Other Pages about Duval-Freer Airport

Update a link
 
Copyright © AirNav, LLC. All rights reserved. Privacy Policy  Contact